Simultaneous Nadir Overpasses (SNOs) Predictions

Prediction of SNOs between LANDSAT-8 and TERRA Satellite Orbit:

Table of predicted SNOs for the next 14.0 days since TLE Epoch: 9/2/2023
Index Date (LANDSAT-8) Time (LANDSAT-8) Lat,Lon (LANDSAT-8) SZA (LANDSAT-8 ) Date (TERRA) Time (TERRA) Lat,Lon (TERRA) SZA (TERRA ) Distance(km) Time Diff (sec)
1 09/07/2023 12:20:12 -81.46,-105.18 97.42 09/07/2023 12:21:21 -81.46,-105.12 97.37 1.02 69
2 09/07/2023 13:09:39 81.47, 62.30 82.58 09/07/2023 13:10:44 81.46, 62.50 82.64 3.34 65
3 09/07/2023 13:59:04 -81.46,-129.89 97.39 09/07/2023 14:00:04 -81.46,-129.73 97.33 2.73 60
4 09/07/2023 14:48:29 81.44, 38.38 82.71 09/07/2023 14:49:26 81.44, 38.28 82.74 1.74 57
5 09/07/2023 15:37:55 -81.43,-153.81 97.25 09/07/2023 15:38:47 -81.43,-153.95 97.24 2.33 52
6 09/07/2023 16:27:22 81.43, 13.68 82.74 09/07/2023 16:28:10 81.43, 13.67 82.77 0.06 48
7 09/07/2023 17:16:48 -81.43,-178.52 97.23 09/07/2023 17:17:31 -81.43,-178.55 97.20 0.61 43
8 09/07/2023 18:06:15 81.43, -11.03 82.77 09/07/2023 18:06:54 81.43, -10.93 82.81 1.69 39
9 09/07/2023 18:55:41 -81.43, 156.78 97.20 09/07/2023 18:56:15 -81.42, 156.84 97.17 1.10 34
10 09/07/2023 19:45:06 81.40, -34.96 82.91 09/07/2023 19:45:37 81.40, -35.15 82.90 3.39 31
11 09/07/2023 20:34:33 -81.41, 132.46 97.11 09/07/2023 20:34:58 -81.40, 132.62 97.08 2.81 25
12 09/07/2023 21:23:59 81.40, -59.67 82.94 09/07/2023 21:24:21 81.40, -59.76 82.94 1.68 22
13 09/07/2023 22:13:25 -81.39, 108.14 97.03 09/07/2023 22:13:42 -81.39, 108.01 97.04 2.24 17
14 09/07/2023 23:02:52 81.40, -84.37 82.97 09/07/2023 23:03:05 81.40, -84.37 82.97 0.10 13
15 09/07/2023 23:52:18 -81.39, 83.43 97.00 09/07/2023 23:52:26 -81.39, 83.40 97.00 0.54 8
16 09/08/2023 00:41:44 81.38,-108.69 83.05 09/08/2023 00:41:48 81.37,-108.60 83.07 1.74 4
17 09/08/2023 01:31:10 -81.37, 59.11 96.92 09/08/2023 01:31:09 -81.36, 59.17 96.91 1.18 1
18 09/08/2023 02:20:36 81.36,-133.02 83.13 09/08/2023 02:20:32 81.37,-133.20 83.10 3.34 4
19 09/08/2023 03:10:03 -81.37, 34.40 96.89 09/08/2023 03:09:53 -81.36, 34.56 96.87 2.89 10
20 09/08/2023 03:59:28 81.34,-157.34 83.22 09/08/2023 03:59:15 81.34,-157.43 83.19 1.63 13
21 09/08/2023 04:48:54 -81.33, 10.46 96.75 09/08/2023 04:48:36 -81.33, 10.33 96.78 2.17 18
22 09/08/2023 05:38:21 81.33, 177.95 83.24 09/08/2023 05:37:59 81.33, 177.96 83.23 0.08 22
23 09/08/2023 06:27:47 -81.33, -14.25 96.73 09/08/2023 06:27:20 -81.33, -14.28 96.75 0.46 27
24 09/08/2023 07:17:14 81.33, 153.24 83.27 09/08/2023 07:16:43 81.33, 153.35 83.27 1.80 31
25 09/08/2023 08:06:39 -81.31, -38.58 96.64 09/08/2023 08:06:03 -81.30, -38.51 96.66 1.26 36
26 09/08/2023 08:56:05 81.29, 129.30 83.41 09/08/2023 08:55:26 81.30, 129.11 83.36 3.29 39
27 09/08/2023 09:45:32 -81.31, -63.29 96.62 09/08/2023 09:44:47 -81.30, -63.12 96.62 2.96 45
28 09/08/2023 10:34:57 81.27, 104.97 83.49 09/08/2023 10:34:09 81.28, 104.88 83.45 1.58 48
29 09/08/2023 11:24:23 -81.26, -87.24 96.48 09/08/2023 11:23:30 -81.27, -87.36 96.53 2.09 53
30 09/08/2023 12:13:50 81.27, 80.26 83.52 09/08/2023 12:12:53 81.27, 80.26 83.49 0.14 57
31 09/08/2023 13:03:16 -81.26,-111.95 96.45 09/08/2023 13:02:14 -81.26,-111.97 96.49 0.39 62
32 09/08/2023 13:52:42 81.25, 55.92 83.60 09/08/2023 13:51:36 81.24, 56.02 83.58 1.84 66



Historial Predications of SNOs between LANDSAT-8 and TERRA
